GMA1 EGPO-EGPD

Flight info

Callsign GMA1
Flight time 0h 40m
Altitude 17000
Route STN Y906 RIMOL
Aircraft BE20/L-SBGRY/S

Departure

Time 2026-05-04 10:45
Airport Stornoway Airport (EGPO)

Arrival

Time 2026-05-04 11:26
Airport Aberdeen International Airport (EGPD)
Time Latitude Longitude Altitude Speed Heading
2026-05-04 10:25 58.21342 -6.32469 16 ft 0 kts 176°
2026-05-04 10:39 58.21341 -6.32468 16 ft 1 kts 176°
2026-05-04 10:39 58.21313 -6.32465 17 ft 1 kts 176°
2026-05-04 10:39 58.21292 -6.32469 16 ft 7 kts 206°
2026-05-04 10:40 58.21288 -6.32475 16 ft 1 kts 220°
2026-05-04 10:40 58.21281 -6.32510 17 ft 6 kts 255°
2026-05-04 10:40 58.21232 -6.32569 16 ft 13 kts 172°
2026-05-04 10:40 58.21144 -6.32553 17 ft 12 kts 175°
2026-05-04 10:41 58.21044 -6.32538 14 ft 19 kts 176°
2026-05-04 10:41 58.20951 -6.32585 17 ft 12 kts 230°
2026-05-04 10:41 58.20930 -6.32751 22 ft 10 kts 262°
2026-05-04 10:41 58.20929 -6.32773 22 ft 0 kts 262°
2026-05-04 10:44 58.21143 -6.33024 19 ft 56 kts 355°
2026-05-04 10:45 58.21761 -6.33148 45 ft 117 kts 354°
2026-05-04 10:45 58.22654 -6.33249 325 ft 136 kts
2026-05-04 10:45 58.23613 -6.32774 786 ft 153 kts 29°
2026-05-04 10:45 58.24418 -6.31289 1191 ft 173 kts 56°
2026-05-04 10:46 58.25035 -6.29186 1435 ft 196 kts 69°
2026-05-04 10:46 58.25331 -6.26572 1736 ft 212 kts 86°
2026-05-04 10:46 58.25240 -6.23726 2017 ft 218 kts 105°
2026-05-04 10:46 58.24632 -6.21162 2502 ft 210 kts 123°
2026-05-04 10:47 58.23890 -6.18801 3047 ft 209 kts 124°
2026-05-04 10:47 58.23142 -6.16399 3486 ft 214 kts 122°
2026-05-04 10:47 58.22402 -6.13925 3914 ft 216 kts 121°
2026-05-04 10:47 58.21709 -6.11404 4411 ft 216 kts 118°
2026-05-04 10:49 58.15919 -5.94289 7415 ft 228 kts 123°
2026-05-04 10:49 58.15072 -5.91726 7859 ft 231 kts 123°
2026-05-04 10:50 58.14229 -5.89169 8289 ft 233 kts 123°
2026-05-04 10:51 58.07956 -5.70252 11345 ft 252 kts 124°
2026-05-04 10:52 58.07029 -5.67464 11752 ft 250 kts 124°
2026-05-04 10:52 58.06101 -5.64683 12184 ft 250 kts 124°
2026-05-04 10:52 58.05173 -5.61903 12620 ft 250 kts 124°
2026-05-04 10:54 57.98630 -5.42396 15600 ft 247 kts 125°
2026-05-04 10:54 57.97713 -5.39672 16020 ft 245 kts 125°
2026-05-04 10:56 57.90835 -5.19372 17015 ft 288 kts 125°
2026-05-04 10:56 57.89765 -5.16166 17015 ft 290 kts 122°
2026-05-04 10:56 57.89106 -5.13986 17015 ft 291 kts 122°
2026-05-04 10:57 57.88082 -5.10693 17013 ft 293 kts 123°
2026-05-04 10:57 57.87045 -5.07394 17012 ft 294 kts 122°
2026-05-04 10:57 57.86010 -5.04070 17011 ft 295 kts 122°
2026-05-04 10:57 57.84642 -4.99659 17009 ft 295 kts 122°
2026-05-04 10:58 57.83605 -4.96334 17011 ft 295 kts 122°
2026-05-04 10:58 57.82568 -4.93017 16999 ft 294 kts 122°
2026-05-04 10:58 57.81868 -4.90781 17000 ft 294 kts 122°
2026-05-04 10:58 57.80837 -4.87484 17001 ft 293 kts 123°
2026-05-04 10:59 57.79807 -4.84199 16997 ft 292 kts 123°
2026-05-04 10:59 57.78776 -4.80915 16994 ft 292 kts 122°
2026-05-04 10:59 57.77747 -4.77642 16994 ft 291 kts 123°
2026-05-04 10:59 57.76716 -4.74368 16996 ft 293 kts 123°
2026-05-04 11:00 57.75681 -4.71084 16997 ft 293 kts 123°
2026-05-04 11:01 57.68429 -4.48208 16991 ft 293 kts 123°
2026-05-04 11:02 57.67388 -4.44944 16991 ft 292 kts 123°
2026-05-04 11:02 57.66349 -4.41688 16991 ft 292 kts 123°
2026-05-04 11:05 57.52550 -3.94399 16922 ft 303 kts 109°
2026-05-04 11:06 57.51882 -3.90641 16736 ft 309 kts 109°
2026-05-04 11:06 57.51207 -3.86827 16534 ft 312 kts 109°
2026-05-04 11:06 57.50526 -3.82982 16333 ft 314 kts 109°
2026-05-04 11:06 57.49840 -3.79122 16133 ft 315 kts 109°
2026-05-04 11:08 57.45015 -3.52208 14991 ft 308 kts 109°
2026-05-04 11:10 57.40306 -3.26307 14979 ft 302 kts 109°
2026-05-04 11:12 57.35396 -2.99674 13987 ft 317 kts 109°
2026-05-04 11:12 57.34680 -2.95823 13979 ft 315 kts 109°
2026-05-04 11:12 57.33970 -2.92008 13974 ft 312 kts 109°
2026-05-04 11:12 57.33263 -2.88220 13969 ft 311 kts 109°
2026-05-04 11:13 57.32566 -2.84493 13967 ft 310 kts 109°
2026-05-04 11:13 57.31861 -2.80731 13964 ft 310 kts 109°
2026-05-04 11:13 57.31155 -2.76970 13965 ft 309 kts 109°
2026-05-04 11:13 57.30448 -2.73212 13970 ft 309 kts 109°
2026-05-04 11:14 57.29741 -2.69461 13973 ft 309 kts 110°
2026-05-04 11:14 57.29033 -2.65711 13974 ft 309 kts 110°
2026-05-04 11:14 57.28325 -2.61968 13977 ft 309 kts 110°
2026-05-04 11:16 57.23245 -2.35333 12799 ft 325 kts 110°
2026-05-04 11:16 57.22489 -2.31404 12410 ft 324 kts 110°
2026-05-04 11:16 57.21736 -2.27492 12020 ft 323 kts 110°
2026-05-04 11:17 57.20795 -2.23788 11639 ft 318 kts 124°
2026-05-04 11:17 57.19430 -2.20645 11262 ft 312 kts 139°
2026-05-04 11:19 57.06439 -2.09448 8579 ft 285 kts 160°
2026-05-04 11:19 57.04600 -2.08119 8190 ft 281 kts 164°
2026-05-04 11:19 57.02717 -2.07641 7807 ft 271 kts 191°
2026-05-04 11:19 57.00998 -2.08784 7435 ft 261 kts 218°
2026-05-04 11:20 56.99861 -2.11171 7066 ft 242 kts 246°
2026-05-04 11:20 56.99434 -2.14052 6687 ft 231 kts 264°
2026-05-04 11:20 56.99498 -2.16953 6313 ft 226 kts 281°
2026-05-04 11:20 57.00233 -2.19460 5921 ft 228 kts 313°
2026-05-04 11:22 57.09113 -2.12552 3250 ft 199 kts
2026-05-04 11:22 57.10460 -2.12774 2873 ft 192 kts 342°
2026-05-04 11:23 57.11722 -2.13565 2486 ft 191 kts 337°
2026-05-04 11:23 57.12947 -2.14437 2099 ft 185 kts 336°
2026-05-04 11:24 57.17533 -2.17812 739 ft 119 kts 335°
2026-05-04 11:25 57.18273 -2.18378 600 ft 112 kts 336°
2026-05-04 11:25 57.18984 -2.18891 363 ft 105 kts 336°
2026-05-04 11:25 57.19620 -2.19357 258 ft 92 kts 335°
2026-05-04 11:26 57.20245 -2.19813 244 ft 23 kts 339°
2026-05-04 11:27 57.20495 -2.19716 243 ft 0 kts 173°